E2682 Weather Reports


Display with metric or nautical units.
time (UTC)temp
F
wind
direction
speed
MPH
gust
MPH
rain 1hr
in
rain 24hr
in
rain mn
in
humidity
%
barometer
mb
20260901134306 81 135 0.0 3.0 0.00 0.01 0.00 70 982.2
20260901133808 80 137 0.0 5.0 0.00 0.01 0.00 71 982.2
20260901133306 80 137 0.0 5.0 0.00 0.01 0.00 71 982.2
20260901132307 80 159 0.0 3.0 0.00 0.01 0.00 71 982.0
20260901131807 80 161 0.0 1.0 0.00 0.01 0.00 71 981.9
20260901131306 80 161 0.0 3.0 0.00 0.01 0.00 71 981.8
20260901130806 80 161 1.0 3.0 0.00 0.01 0.00 71 981.7
20260901130305 81 162 0.0 1.0 0.00 0.01 0.00 71 981.7
20260901125806 81 162 0.0 1.0 0.00 0.01 0.00 71 981.7
20260901125309 81 183 0.0 1.0 0.00 0.01 0.00 70 981.6
20260901124806 81 183 0.0 2.0 0.00 0.01 0.00 70 981.7
20260901124307 81 183 0.0 2.0 0.00 0.01 0.00 71 981.6
20260901123805 81 185 0.0 3.0 0.00 0.01 0.00 71 981.5
20260901123306 81 185 1.0 3.0 0.00 0.01 0.00 70 981.5
20260901122807 81 188 0.0 2.0 0.00 0.01 0.00 70 981.5
20260901122307 81 199 0.0 1.0 0.00 0.01 0.00 70 981.4
20260901120807 81 202 0.0 0.0 0.00 0.01 0.00 70 981.3
20260901120305 81 202 0.0 0.0 0.00 0.01 0.00 70 981.3
20260901115806 81 202 0.0 0.0 0.00 0.01 0.00 70 981.3
20260901113307 81 204 0.0 0.0 0.00 0.01 0.00 69 981.3
20260901112808 81 204 0.0 0.0 0.00 0.01 0.00 69 981.2
20260901112306 81 204 0.0 0.0 0.00 0.01 0.00 69 981.2
20260901111305 81 204 0.0 0.0 0.00 0.01 0.00 69 981.3
20260901110806 81 204 0.0 0.0 0.00 0.01 0.00 69 981.3
20260901110314 81 204 0.0 0.0 0.00 0.01 0.00 69 981.3
20260901105805 81 179 0.0 0.0 0.00 0.01 0.00 69 981.3
20260901105306 81 171 0.0 1.0 0.00 0.01 0.00 69 981.3
20260901104806 81 169 0.0 1.0 0.00 0.01 0.00 69 981.2
20260901104304 81 169 0.0 0.0 0.00 0.01 0.00 69 981.2
20260901103805 82 169 0.0 2.0 0.00 0.01 0.00 69 981.2
20260901103306 82 169 0.0 3.0 0.00 0.01 0.00 69 981.2
20260901102307 82 183 0.0 2.0 0.00 0.01 0.00 68 981.3
20260901101810 82 169 0.0 6.0 0.00 0.01 0.00 67 981.3
20260901101309 82 166 1.0 6.0 0.00 0.01 0.00 67 981.3
20260901100806 82 209 0.0 2.0 0.00 0.01 0.00 66 981.3
20260901095805 82 221 0.0 1.0 0.00 0.01 0.00 66 981.3
20260901093806 82 195 0.0 2.0 0.00 0.01 0.00 67 981.3
20260901093306 82 168 0.0 3.0 0.00 0.01 0.00 67 981.4
20260901092806 82 230 0.0 3.0 0.00 0.01 0.00 67 981.3
20260901092307 0 264 1.0 1.0 0.00 0.01 0.00 981.4
20260901091806 82 182 0.0 1.0 0.00 0.01 0.00 67 981.4
20260901091307 82 182 0.0 2.0 0.00 0.01 0.00 67 981.4
20260901090306 82 238 0.0 3.0 0.00 0.01 0.00 67 981.5
20260901085806 82 213 0.0 3.0 0.00 0.01 0.00 67 981.4
20260901084805 82 212 0.0 1.0 0.00 0.01 0.00 67 981.3
20260901084305 82 241 0.0 2.0 0.00 0.01 0.00 67 981.4
20260901083806 82 217 0.0 4.0 0.00 0.01 0.00 67 981.4
20260901083305 82 221 0.0 4.0 0.00 0.01 0.00 67 981.4
20260901082806 82 165 1.0 3.0 0.00 0.01 0.00 67 981.3
20260901082306 82 203 0.0 3.0 0.00 0.01 0.00 67 981.3
20260901081805 82 202 0.0 4.0 0.00 0.01 0.00 66 981.4
20260901080805 82 171 0.0 3.0 0.00 0.01 0.00 66 981.2
20260901080306 82 238 0.0 2.0 0.00 0.01 0.00 66 981.1
20260901075806 82 207 0.0 2.0 0.00 0.01 0.00 66 981.1
20260901074804 82 176 0.0 5.0 0.00 0.01 0.00 67 981.1
20260901074305 82 209 1.0 7.0 0.00 0.01 0.00 66 981.2
20260901073805 82 168 1.0 7.0 0.00 0.01 0.00 65 981.2
20260901073305 82 186 2.0 6.0 0.00 0.01 0.00 65 981.3
20260901072805 82 204 1.0 4.0 0.00 0.01 0.00 66 981.3
20260901072309 82 197 0.0 3.0 0.00 0.01 0.00 66 981.4
20260901071805 82 206 0.0 2.0 0.00 0.01 0.00 68 981.3
20260901071305 82 197 1.0 4.0 0.00 0.01 0.00 67 981.4
20260901070805 82 217 1.0 4.0 0.00 0.01 0.00 66 981.4
20260901070307 82 223 2.0 4.0 0.00 0.01 0.00 67 981.3
20260901065805 82 226 2.0 4.0 0.00 0.01 0.01 68 981.3
20260901065306 81 186 2.0 5.0 0.00 0.01 0.01 68 981.2
20260901064305 81 185 1.0 6.0 0.00 0.01 0.01 67 981.2
20260901063806 81 179 2.0 6.0 0.00 0.01 0.01 67 981.2
20260901063306 81 179 2.0 6.0 0.00 0.01 0.01 67 981.1
20260901062806 81 192 3.0 6.0 0.00 0.01 0.01 66 981.1
20260901062310 82 210 3.0 7.0 0.00 0.01 0.01 65 981.1
20260901061306 83 209 2.0 5.0 0.00 0.01 0.01 63 981.3
20260901060807 83 179 2.0 5.0 0.00 0.01 0.01 62 981.2
20260901055306 83 172 2.0 11.0 0.00 0.01 0.01 59 981.3
20260901054806 83 154 5.0 11.0 0.00 0.01 0.01 59 981.3
20260901054305 83 157 4.0 11.0 0.00 0.01 0.01 59 981.4
20260901053806 83 149 1.0 11.0 0.00 0.01 0.01 59 981.4
20260901053306 82 155 2.0 9.0 0.00 0.01 0.01 60 981.5
20260901052806 82 152 0.0 9.0 0.00 0.01 0.01 62 981.5
20260901052307 81 140 4.0 12.0 0.00 0.01 0.01 63 981.7
20260901051809 81 118 3.0 17.0 0.00 0.01 0.01 64 981.8
20260901051309 81 116 8.0 19.0 0.00 0.01 0.01 64 981.7
20260901050810 80 111 9.0 19.0 0.00 0.01 0.01 65 981.9
20260901050317 80 123 12.0 18.0 0.00 0.01 0.01 66 982.0
20260901045805 80 123 11.0 23.0 0.00 0.01 0.01 67 982.1
20260901045306 80 109 16.0 23.0 0.00 0.01 0.01 67 982.3
20260901044805 81 121 16.0 22.0 0.00 0.01 0.01 66 982.4
20260901044305 81 127 9.0 19.0 0.00 0.01 0.01 64 982.3
20260901043807 81 142 12.0 19.0 0.00 0.01 0.01 64 982.3
20260901042806 81 134 9.0 23.0 0.00 0.01 0.01 65 982.4
20260901042306 81 114 10.0 23.0 0.00 0.01 0.01 65 982.5
20260901041805 81 124 13.0 19.0 0.00 0.01 0.01 65 982.5
20260901040307 81 135 4.0 17.0 0.00 0.01 0.01 64 982.6
20260901035811 81 118 12.0 20.0 0.00 0.01 0.01 64 982.4
20260901035307 81 124 10.0 20.0 0.00 0.01 0.01 64 982.5
20260901034306 81 133 12.0 21.0 0.00 0.01 0.01 65 982.4
20260901033805 81 162 13.0 21.0 0.00 0.01 0.01 66 982.4
20260901033305 80 117 7.0 18.0 0.00 0.01 0.01 67 982.3
20260901032805 80 131 8.0 18.0 0.00 0.01 0.01 68 982.2
20260901032307 80 123 13.0 20.0 0.00 0.01 0.01 70 982.1
20260901031805 80 127 11.0 20.0 0.00 0.01 0.01 70 981.9
20260901031307 80 118 14.0 21.0 0.00 0.01 0.01 71 981.9
20260901030806 80 125 11.0 21.0 0.00 0.01 0.01 71 981.8
20260901030305 80 128 13.0 20.0 0.00 0.01 0.01 71 981.7
20260901025805 80 137 14.0 22.0 0.00 0.01 0.01 69 981.7
20260901025306 81 113 12.0 22.0 0.00 0.01 0.01 68 981.6
20260901024805 81 130 3.0 14.0 0.00 0.01 0.01 68 981.5
20260901023306 81 138 9.0 18.0 0.00 0.01 0.01 68 981.2
20260901022806 80 151 6.0 18.0 0.00 0.01 0.01 69 981.2
20260901022306 80 130 2.0 20.0 0.00 0.01 0.01 71 981.1
20260901021805 80 138 9.0 20.0 0.00 0.01 0.01 70 981.0
20260901021306 80 111 9.0 17.0 0.00 0.01 0.01 71 981.1
20260901020806 80 125 8.0 17.0 0.00 0.01 0.01 71 980.9
20260901020305 81 123 7.0 17.0 0.00 0.01 0.01 70 980.8
20260901015806 81 141 6.0 15.0 0.00 0.01 0.01 70 980.5
20260901015306 80 159 3.0 16.0 0.00 0.01 0.01 71 980.4
20260901014806 80 111 7.0 21.0 0.00 0.01 0.01 71 980.6
20260901014305 81 175 9.0 21.0 0.00 0.01 0.01 70 980.7
20260901013805 81 154 11.0 18.0 0.00 0.01 0.01 70 980.6
20260901013307 81 117 6.0 19.0 0.00 0.01 0.01 69 980.5
20260901012806 82 134 11.0 19.0 0.00 0.01 0.01 68 980.3
20260901012306 82 155 4.0 11.0 0.00 0.01 0.01 67 980.1
20260901011805 83 133 4.0 12.0 0.00 0.01 0.01 67 980.0
20260901011306 83 124 6.0 12.0 0.00 0.01 0.01 66 980.0
20260901010805 85 124 2.0 9.0 0.00 0.01 0.01 64 979.9
20260901010305 85 175 0.0 0.0 0.00 0.01 0.01 64 979.9
20260901005806 84 159 0.0 1.0 0.00 0.01 0.01 65 980.0
20260901005307 83 111 0.0 1.0 0.00 0.01 0.01 67 979.9
20260901004805 83 109 0.0 1.0 0.00 0.01 0.01 68 979.8
20260901004305 83 107 0.0 0.0 0.00 0.01 0.01 69 979.6
20260901003806 82 109 0.0 0.0 0.00 0.01 0.01 70 979.6
20260901002306 80 106 0.0 11.0 0.00 0.01 0.01 73 979.6
20260901000805 80 89 5.0 13.0 0.00 0.01 0.01 71 980.0
20260831235805 80 86 4.0 10.0 0.00 0.01 0.00 70 979.8
20260831234805 81 94 2.0 10.0 0.00 0.01 0.00 72 979.8
20260831234305 81 82 1.0 4.0 0.00 0.01 0.00 70 979.9
20260831233305 82 72 1.0 4.0 0.00 0.01 0.00 72 980.1
20260831232807 82 49 0.0 1.0 0.00 0.01 0.00 71 980.0
20260831232306 82 54 0.0 1.0 0.00 0.01 0.00 70 980.1
20260831231805 82 38 0.0 1.0 0.01 0.01 0.00 71 980.0
20260831231306 82 130 0.0 0.0 0.01 0.01 0.00 71 979.6
20260831230306 82 128 0.0 0.0 0.01 0.01 0.00 73 979.5
20260831225806 81 128 0.0 1.0 0.01 0.00 0.01 74 979.2
20260831225306 81 128 0.0 2.0 0.01 0.00 0.01 74 979.4
20260831224806 80 128 0.0 2.0 0.01 0.00 0.01 74 979.7
20260831224306 80 125 0.0 7.0 0.01 0.00 0.01 75 979.9
20260831223805 80 114 2.0 7.0 0.01 0.00 0.01 79 979.8
20260831223305 80 128 1.0 3.0 0.01 0.00 0.01 79 979.6
20260831222806 79 116 0.0 9.0 0.01 0.00 0.01 80 979.7
20260831222306 79 114 0.0 9.0 0.01 0.00 0.01 80 979.8
20260831221805 80 124 0.0 7.0 0.00 0.00 0.00 81 980.1
20260831221306 80 110 2.0 7.0 0.00 0.00 0.00 79 980.4
20260831220811 81 56 2.0 6.0 0.00 0.00 0.00 73 980.7
20260831215306 83 137 0.0 2.0 0.00 0.00 0.00 62 980.6
20260831214806 83 137 0.0 2.0 0.00 0.00 0.00 62 980.4
20260831214307 84 171 0.0 10.0 0.00 0.00 0.00 63 980.3
20260831213307 85 279 2.0 21.0 0.00 0.00 0.00 71 980.3
20260831212805 87 327 7.0 30.0 0.00 0.00 0.00 64 979.8
20260831211805 92 317 7.0 19.0 0.00 0.00 0.00 52 979.4
20260831211307 97 268 9.0 16.0 0.00 0.00 0.00 42 979.3
20260831210806 99 278 0.0 3.0 0.00 0.00 0.00 42 979.0
20260831205807 99 257 0.0 5.0 0.00 0.00 0.00 42 979.1
20260831205307 100 309 0.0 6.0 0.00 0.00 0.00 42 979.1
20260831204805 100 309 2.0 6.0 0.00 0.00 0.00 42 979.2
20260831204306 99 152 0.0 0.0 0.00 0.00 0.00 43 979.3
20260831203807 98 152 0.0 1.0 0.00 0.00 0.00 43 979.4
20260831203308 98 151 0.0 3.0 0.00 0.00 0.00 44 979.5
20260831202306 98 69 1.0 3.0 0.00 0.00 0.00 45 979.7
20260831201309 98 337 0.0 1.0 0.00 0.00 0.00 45 979.9
20260831200308 97 316 0.0 0.0 0.00 0.00 0.00 47 980.3
20260831195807 97 316 0.0 0.0 0.00 0.00 0.00 46 980.3
20260831195307 96 316 0.0 1.0 0.00 0.00 0.00 47 980.4
20260831194807 96 316 0.0 1.0 0.00 0.00 0.00 48 980.4
20260831194307 96 266 0.0 1.0 0.00 0.00 0.00 49 980.5
20260831193807 96 266 0.0 1.0 0.00 0.00 0.00 49 980.6
20260831193307 95 265 0.0 0.0 0.00 0.00 0.00 51 980.7
20260831192306 94 265 1.0 3.0 0.00 0.00 0.00 51 980.9
20260831191806 94 250 0.0 5.0 0.00 0.00 0.00 51 981.1
20260831191307 95 326 3.0 5.0 0.00 0.00 0.00 51 981.0
20260831190806 95 313 1.0 4.0 0.00 0.00 0.00 51 981.1
20260831185807 94 276 0.0 0.0 0.00 0.00 0.00 52 981.2
20260831185306 94 278 0.0 0.0 0.00 0.00 0.00 53 981.2
20260831184307 94 278 0.0 1.0 0.00 0.00 0.00 54 981.3
20260831183306 94 305 0.0 6.0 0.00 0.00 0.00 54 981.3
20260831182306 93 238 0.0 2.0 0.00 0.00 0.00 55 981.5
20260831181303 93 159 0.0 1.0 0.00 0.00 0.00 55 981.6
20260831180803 93 165 0.0 1.0 0.00 0.00 0.00 55 981.6
20260831180303 93 241 0.0 4.0 0.00 0.00 0.00 55 981.6
20260831175803 93 248 0.0 4.0 0.00 0.00 0.00 55 981.7
20260831175306 93 234 0.0 0.0 0.00 0.00 0.00 54 981.6
20260831174303 92 173 0.0 4.0 0.00 0.00 0.00 56 981.6
20260831173803 93 199 0.0 1.0 0.00 0.00 0.00 54 981.7
20260831173303 92 264 0.0 0.0 0.00 0.00 0.00 55 981.6
20260831172802 92 264 0.0 0.0 0.00 0.00 0.00 54 981.7
20260831172306 91 264 0.0 0.0 0.00 0.00 0.00 55 981.7
20260831171804 91 264 0.0 1.0 0.00 0.00 0.00 57 981.8
20260831171302 91 264 0.0 1.0 0.00 0.00 0.00 60 981.7
20260831170803 91 262 0.0 4.0 0.00 0.00 0.00 61 981.7
20260831170307 90 262 0.0 4.0 0.00 0.00 0.00 62 981.6
20260831165803 90 155 0.0 3.0 0.00 0.00 0.00 62 981.5
20260831165305 90 238 0.0 1.0 0.00 0.00 0.00 64 981.7
20260831164303 89 283 0.0 0.0 0.00 0.00 0.00 67 981.8
20260831163804 89 250 0.0 0.0 0.00 0.00 0.00 68 981.8
20260831162802 88 250 0.0 0.0 0.00 0.00 0.00 69 981.9
20260831162307 87 275 0.0 2.0 0.00 0.00 0.00 70 981.9
20260831161807 87 295 0.0 2.0 0.00 0.00 0.00 70 982.0
20260831160803 88 264 0.0 0.0 0.00 0.00 0.00 71 982.0
20260831160303 88 282 0.0 1.0 0.00 0.00 0.00 72 982.0
20260831155815 87 292 0.0 2.0 0.00 0.00 0.00 73 982.0
20260831155317 87 288 0.0 3.0 0.00 0.00 0.00 74 982.0
20260831154802 87 292 0.0 10.0 0.00 0.00 0.00 74 982.0
20260831154303 86 298 1.0 10.0 0.00 0.00 0.00 75 982.1
20260831153803 86 231 1.0 5.0 0.00 0.00 0.00 75 982.1
20260831153315 86 259 0.0 4.0 0.00 0.00 0.00 77 982.1
20260831152802 85 227 0.0 5.0 0.00 0.00 0.00 77 982.1
20260831152306 85 262 0.0 5.0 0.00 0.00 0.00 78 982.1
20260831151804 85 285 1.0 5.0 0.00 0.00 0.00 78 982.0
20260831151304 85 300 0.0 6.0 0.00 0.00 0.00 78 982.1
20260831150803 84 261 2.0 6.0 0.00 0.00 0.00 79 982.0
20260831150303 85 265 0.0 6.0 0.00 0.00 0.00 78 981.8
20260831145802 85 261 0.0 3.0 0.00 0.00 0.00 79 981.8
20260831145306 85 274 1.0 5.0 0.00 0.00 0.00 79 981.7
20260831144805 84 248 1.0 5.0 0.00 0.00 0.00 80 981.7
20260831144303 84 275 0.0 1.0 0.00 0.00 0.00 80 981.7
20260831143803 84 223 0.0 6.0 0.00 0.00 0.00 81 981.7
20260831143315 84 281 0.0 6.0 0.00 0.00 0.00 81 981.7
20260831142804 84 254 0.0 3.0 0.00 0.00 0.00 81 981.7
20260831142305 83 255 0.0 3.0 0.00 0.00 0.00 81 981.6
20260831140302 83 247 0.0 4.0 0.00 0.00 0.00 81 981.4
20260831135802 83 265 0.0 4.0 0.00 0.00 0.00 81 981.3
20260831135306 83 234 0.0 1.0 0.00 0.00 0.00 81 981.2
20260831134804 83 268 0.0 3.0 0.00 0.00 0.00 81 981.2